Location: Lansingburgh
(42.7845°N, 73.6696°W)
Time: 04:48:21
(UTC+00:00)

Cosmos 1340 Rocket - Pass Details

Date: 24 January 2020
Orbit: 529 x 558 km, 81.2° (Epoch: 17 February)

Event Time Altitude Azimuth Distance (km) Brightness Sun altitude
Rises 22:32:44 0° 347° (NNW) 2,699 6.3 -6.9°
Reaches altitude 10° 22:34:54 10° 345° (NNW) 1,807 5.4 -7.3°
Maximum altitude 22:38:51 69° 263° (W) 586 3.2 -8.0°
Drops below altitude 10° 22:42:48 10° 180° (S) 1,809 5.7 -8.7°
Sets 22:44:58 0° 178° (S) 2,702 6.6 -9.0°
